Location: Gollap?di
(16.5412°N, 80.5784°E)
Time: 16:20:32
(UTC+00:00)

Daily predictions for brighter satellites

Satellite Brightness Start Highest point End
(mag) Time Altitude Azimuth Time Altitude Azimuth Time Altitude Azimuth
Meteor 1-12 Rocket 4.3 13:29:14 10° N 13:34:46 58° E 13:40:18 10° SSE
Cosmos 1943 4.2 13:34:52 10° SSE 13:39:28 25° ESE 13:44:02 10° NE
Ariane H10+ 4.0 13:37:06 10° SW 13:39:53 18° S 13:43:32 10° ESE
GPS 2-04 Rocket1 4.4 13:37:22 10° W 13:40:36 24° SW 13:43:45 10° SSE
Cosmos 1733 4.2 13:38:16 10° NNW 13:41:53 48° W 13:45:31 10° SSW
DASH 3.4 13:33:02 10° WNW 13:44:49 68° NNE 13:47:58 10° ESE
Cosmos 1943 Rocket 3.9 13:45:15 10° NNE 13:48:19 15° ENE 13:51:22 10° E
Cosmos 1626 3.3 13:45:32 10° SE 13:48:27 23° E 13:51:23 10° NE
GPS 2-14 Rocket1 2.7 13:45:10 10° WSW 13:49:12 68° SSE 13:53:14 10° E
H-2A R/B 4.4 13:49:17 10° E 13:50:14 11° ENE 13:51:12 10° ENE
Cosmos 1707 2.6 13:47:10 10° S 13:50:56 68° E 13:54:43 10° N
CZ-4B R/B 3.6 13:45:39 10° S 13:51:08 68° WSW 13:56:43 10° NNW
GPS 2-17 Rocket1 3.8 13:48:29 10° SW 13:52:30 33° SSE 13:56:21 11° E
Cosmos 1766 3.2 13:49:15 10° N 13:53:10 90° ESE 13:57:03 10° S
Meteor 1-15 Rocket 4.3 13:48:51 10° N 13:54:46 74° E 14:00:38 10° S
Cosmos 494 Rocket 4.0 13:55:07 10° NNW 14:00:18 88° WSW 14:05:31 10° SSE
Cosmos 1048 Rocket 4.1 13:56:51 10° NNW 14:01:59 76° WSW 14:07:11 10° S
YAOGAN 1 3.0 13:58:02 10° S 14:02:17 62° WSW 14:06:33 10° NNW
Cosmos 1242 Rocket 3.4 14:03:35 10° NNE 14:06:31 28° E 14:07:53 21° ESE
In-Cosmos 22 4.0 14:01:36 10° S 14:06:58 87° E 14:12:15 10° N
Cosmos 405 Rocket 2.7 14:03:27 10° S 14:07:18 64° E 14:11:15 10° NNE
ATLAS V CENTAUR R/B 3.0 14:07:59 10° WSW 14:09:33 22° SSW 14:10:01 20° S
USA 267 3.2 14:05:49 10° NE 14:12:19 69° SE 14:18:49 10° SSW
Cosmos 292 Rocket 3.6 14:08:35 10° S 14:13:19 71° ESE 14:18:02 10° NNE
Cosmos 1782 Rocket 3.6 14:11:31 10° N 14:15:59 88° W 14:20:26 10° S
OBJECT-B 0.3 14:14:36 22° SSE 14:16:15 75° E 14:19:05 10° N
deb Chang Zheng 4 3.6 14:15:55 20° SE 14:18:37 52° ENE 14:22:40 10° N
Lacrosse 4 Rocket 2.2 14:18:18 10° SSW 14:22:28 55° WNW 14:26:33 10° N
Cosmos 1470 2.6 14:21:51 10° N 14:25:43 82° E 14:28:19 20° S
CZ-4 R/B 3.0 14:24:26 10° SSW 14:28:15 34° W 14:32:03 10° NW
H-2A R/B 2.1 14:24:11 10° NNE 14:28:32 57° ESE 14:32:15 14° S
Cosmos 2221 Rocket 3.5 14:24:47 10° S 14:29:11 88° W 14:33:38 10° N
Okean-O 2.6 14:27:53 24° SSE 14:30:28 68° ENE 14:34:50 10° N
Okean 2 Rocket 4.0 14:28:35 10° NNE 14:32:21 27° E 14:32:26 27° E
Cosmos 2369 Rocket 4.1 14:30:26 10° NE 14:32:26 12° ENE 14:32:39 12° ENE
Cosmos 1553 Rocket 4.1 14:28:26 10° S 14:34:27 58° E 14:40:38 10° NNE
OAO 2 Rocket 3.8 14:29:33 10° WNW 14:34:41 53° SW 14:37:07 29° SSE
CSL-04 Rocket 3.6 14:35:15 22° SSE 14:38:52 80° ENE 14:44:22 10° N
Delta 202 4.1 14:33:59 10° SW 14:39:10 46° SSE 14:41:38 32° ESE
X-37B 2.3 14:37:21 10° WSW 14:39:50 30° NW 14:42:20 10° NNE
GRACE-FO 1 4.5 14:37:07 10° N 14:40:49 71° E 14:41:34 52° SSE
GRACE-FO 2 4.5 14:37:31 10° N 14:41:14 73° E 14:41:59 52° SSE
SEDSat Delta rocket 4.1 14:38:31 10° W 14:42:03 28° SSW 14:42:55 25° S
SJ-6B 2.6 14:41:08 42° S 14:42:19 87° W 14:46:03 10° NNW
Okean O Rocket 4.3 14:40:58 10° SW 14:43:34 16° W 14:46:11 10° WNW
Cosmos 2278 Rocket 4.1 14:39:09 10° NW 14:43:46 26° WSW 14:48:23 10° SSW
Cosmos 1378 Rocket 3.5 14:41:59 20° S 14:45:01 90° SW 14:49:27 10° N
COBE Rocket 3.8 14:44:19 25° S 14:47:04 77° WSW 14:51:44 10° NNW
Hubble Space Telescope 3.0 14:44:16 10° NW 14:47:09 18° N 14:49:07 14° NE
S3M 4.3 14:46:28 35° SE 14:48:06 42° E 14:53:54 10° NNE
Cosmos 1674 Rocket 3.7 14:47:06 19° SSW 14:50:06 72° W 14:54:24 10° N
SL-08 ROCKET BODY 4.4 14:44:30 10° N 14:50:25 63° E 14:52:45 37° SSE
Landsat 7 3.9 14:51:04 48° E 14:51:33 50° ENE 14:56:05 10° N
Spot 2 3.9 14:51:40 58° SE 14:52:25 75° ENE 14:56:54 10° N
OAO 3 Copernicus 4.4 14:47:25 10° NW 14:52:28 68° NNE 14:53:38 50° E
Iridium 4 Rocket 3.7 14:47:16 10° N 14:53:10 78° E 14:55:49 33° S
CZ-2C R/B 1.8 14:49:36 10° NW 14:53:26 43° NNE 14:53:36 43° NE
Intercosmos 25 3.3 14:50:22 10° N 14:53:20 60° NE 14:53:20 60° NE
Longmarch 3A Rocket 3.9 14:52:52 10° NNW 14:54:25 14° NNE 14:55:18 13° NE
Atlas Centaur 2 4.1 14:54:00 10° NW 14:56:19 14° N 14:58:27 10° NNE
IRS-1C Rocket 4.4 14:53:27 24° S 14:56:33 64° WSW 15:01:44 10° NNW
Meteor 2-17 Rocket 4.4 14:50:45 10° N 14:56:49 86° W 15:00:08 29° S
MetOp-A 3.1 14:56:56 81° SE 14:57:05 85° ENE 15:01:10 10° N
Cosmos 1244 Rocket 4.4 14:54:26 10° N 15:00:29 62° E 15:01:57 48° SE
Cosmos 1269 Rocket 3.9 14:56:26 10° N 15:01:41 68° ENE 15:02:22 60° ESE
Yuri Rocket 4.4 15:03:15 10° W 15:07:12 37° NNW 15:10:10 19° NE
Cosmos 1437 Rocket 3.5 15:03:38 10° N 15:06:34 46° NNE 15:06:34 46° NNE
Cosmos 1758 3.6 15:03:53 10° NNW 15:07:54 63° W 15:08:03 62° WSW
Cosmos 1238 Rocket 3.9 15:02:26 10° N 15:08:14 59° E 15:08:55 56° ESE
USA 186 4.4 15:08:37 13° W 15:08:37 13° W 15:09:50 10° WNW
Cosmos 1607 3.8 15:07:31 43° S 15:09:29 63° ESE 15:15:38 10° NNE
Milstar 3 4.2 15:00:30 10° SW 15:09:47 51° SE 15:27:29 10° ENE
Cosmos 2297 3.5 15:04:40 10° NNW 15:10:21 76° ENE 15:11:00 67° SE
SPOT 1/Viking Rocket 4.3 15:12:10 37° NE 15:12:10 37° NE 15:16:03 10° N
SL-14 R/B 4.2 15:16:20 43° W 15:16:20 43° W 15:20:00 10° NNW
CZ-3A R/B 4.1 15:07:53 10° SW 15:16:28 28° SSW 15:16:28 28° SSW
H-2A R/B 4.1 15:25:09 26° WSW 15:25:20 26° W 15:28:37 10° NW
IRS-1A Rocket 4.3 15:25:45 68° ENE 15:25:45 68° ENE 15:31:26 10° N
CZ-4B R/B 4.2 15:23:24 10° NNW 15:23:59 14° NNW 15:23:59 14° NNW
GPS 2-14 Rocket1 4.4 15:25:55 10° W 15:28:18 32° WNW 15:28:18 32° WNW
Cosmos 1943 Rocket 3.0 15:26:48 10° NW 15:32:02 42° WSW 15:33:03 38° SW
GEOS 3 Rocket 3.8 15:32:19 60° WSW 15:32:19 60° WSW 15:37:09 10° NW
Cosmos 1745 Rocket 4.4 15:28:23 10° N 15:33:06 47° NE 15:33:06 47° NE
Ariane Rocket 3.9 15:41:49 42° N 15:41:49 42° N 15:45:09 10° N
ATLAS 3B CENTAUR R/B 4.0 15:32:36 10° WNW 15:45:42 54° N 15:49:16 37° ENE
Cosmos 2315 Rocket 4.3 15:50:49 61° N 15:50:49 61° N 15:55:57 10° N
Resurs 01 Rocket 3.5 15:54:19 29° NW 15:54:19 29° NW 15:56:44 10° NNW
Centaur D AC-28 4.1 15:25:43 10° WNW 16:13:09 51° SW 16:14:08 49° SSW
Cosmos 2369 Rocket 3.6 16:11:04 10° NNW 16:14:27 35° NW 16:14:27 35° NW
SL-16 R/B 3.9 20:53:08 32° N 20:53:08 32° N 20:56:20 10° N
Cosmos 2360 Rocket 4.0 20:49:10 10° N 20:52:00 26° NNE 20:52:00 26° NNE
Cosmos 2297 Rocket 3.8 21:04:40 29° ENE 21:04:40 29° ENE 21:08:12 10° NE
NOSS 3-2 (C) 4.4 21:14:31 35° NE 21:14:31 35° NE 21:17:44 10° NNE
CENTAUR R/B 3.6 21:15:27 31° N 21:15:27 31° N 21:18:42 10° NNE
Delta 2 Rocket 4.5 21:23:19 82° NW 21:23:35 83° NNW 21:33:01 10° ENE
USA 238 DEB 3.7 21:31:25 66° N 21:31:25 66° N 21:36:58 10° NNE
USA 238 3.7 21:31:32 67° N 21:31:32 67° N 21:37:06 10° NNE
Cosmos 2219 Rocket 3.5 21:32:22 10° N 21:37:33 37° ENE 21:42:44 10° SE
Cosmos 2333 Rocket 2.4 21:39:45 10° N 21:45:29 68° ENE 21:46:21 59° ESE
ALOS 2.6 21:51:11 10° NNE 21:54:58 59° NNE 21:54:58 59° NNE
SWIFT 3.4 21:59:03 41° NE 21:59:03 41° NE 22:02:14 10° ENE
Cosmos 990 Rocket 4.3 21:56:17 10° NNW 22:00:12 53° NNW 22:00:12 53° NNW
MOS 1-B Rocket 3.9 22:01:05 50° S 22:02:50 84° WSW 22:09:41 10° NNW
CZ-2D R/B 4.3 22:01:13 10° NNE 22:05:13 45° E 22:05:39 43° ESE
Ariane H10+ 4.5 22:02:57 31° SSW 22:05:32 34° S 22:26:07 10° ESE
Helios 1B rocket 4.1 22:02:30 10° N 22:04:26 25° NNW 22:04:26 25° NNW
ARIANE 5 R/B 2.5 22:01:46 10° NNE 22:06:48 78° ESE 22:07:31 64° SSE
Cosmos 1500 Rocket 4.0 22:06:26 53° ESE 22:06:51 56° E 22:11:09 10° NNE
Cosmos 1666 3.8 22:08:58 38° ESE 22:09:15 39° E 22:12:47 10° NNE
FUSE 3.7 22:09:44 78° SW 22:10:04 85° SSE 22:15:28 10° ENE
METEOR-M 4.2 22:06:21 10° NNE 22:11:40 73° ESE 22:13:20 44° S
Meteor 1-27 Rocket 4.3 22:06:41 10° N 22:12:09 56° E 22:17:32 10° SSE
IRS-1C 4.0 22:08:34 10° N 22:13:52 70° WNW 22:14:30 63° WSW
Cosmos 1898 Rocket 3.4 22:09:41 10° NNW 22:14:51 88° ENE 22:17:15 33° SSE
Cosmos 2227 Rocket 2.1 22:15:01 60° SW 22:15:52 71° WNW 22:21:31 10° N
CZ-2C R/B 2.5 22:11:54 10° N 22:15:52 52° NW 22:15:52 52° NW
Cosmos 2208 Rocket 4.0 22:18:06 59° SW 22:18:55 69° WNW 22:24:20 10° N
Cosmos 1500 3.9 22:19:59 43° NNW 22:19:59 43° NNW 22:22:41 10° N
Cosmos 2333 4.4 22:14:01 10° NNW 22:19:22 50° W 22:19:22 50° W
Cosmos 1570 Rocket 4.3 22:20:19 47° WNW 22:20:20 47° WNW 22:25:20 10° N
Meteor 1-20 Rocket 4.3 22:21:02 52° WSW 22:21:51 57° W 22:27:20 10° N
Cosmos 1725 Rocket 4.3 22:20:20 10° NNW 22:26:06 43° W 22:26:53 41° WSW
Envisat 4.3 22:24:29 10° NNE 22:29:07 36° E 22:33:45 10° SSE
GPS 2-17 Rocket1 4.4 22:30:55 27° S 22:30:55 27° S 22:33:53 10° SE
Cosmos 2061 Rocket 4.4 22:24:04 10° NNW 22:30:04 43° W 22:31:37 37° SW
Meteor 1-10 Rocket 4.5 22:25:56 10° NNW 22:31:33 48° W 22:33:09 38° SW
Cosmos 2219 3.3 22:31:37 42° WSW 22:33:09 54° WNW 22:38:40 10° N
COSMOS 2428 2.6 22:27:53 10° NNW 22:33:36 90° ESE 22:39:18 10° SSE
Intelsat 5-1 Rocket 2.4 22:34:14 28° N 22:34:14 28° N 22:36:01 10° NE
Cosmos 2346 Rocket 4.4 22:31:17 20° S 22:35:36 89° E 22:41:41 10° N
Cosmos 2233 Rocket 4.0 22:31:35 10° NNW 22:37:34 58° W 22:41:41 21° SSW
Cosmos 1937 Rocket 3.3 22:32:24 10° NNW 22:37:36 77° WSW 22:42:44 10° S
CZ-3C R/B 3.4 22:35:16 24° WNW 22:38:27 72° N 23:14:55 10° E
Cosmos 2263 Rocket 3.7 22:39:38 10° SSE 22:44:39 34° ESE 22:49:38 10° NE
X-37B 3.7 22:43:39 10° N 22:45:11 13° NE 22:46:44 10° ENE
Meteor 1-29 3.8 22:42:37 10° N 22:45:14 32° WNW 22:45:14 32° WNW
Cosmos 2297 Rocket 3.6 22:46:29 19° WNW 22:47:08 19° WNW 22:51:05 10° NNW
CZ-2C R/B 3.5 22:44:18 10° NNE 22:48:09 52° E 22:51:45 12° S
USA 290 3.7 22:45:41 10° NNW 22:47:14 23° NW 22:47:14 23° NW
Cosmos 1315 Rocket 2.9 22:49:34 16° S 22:52:44 77° E 22:56:46 10° N
CZ-4B R/B 4.1 22:47:48 10° NNE 22:52:48 57° ESE 22:57:38 10° S
Cosmos 2237 Rocket 3.6 22:49:57 10° N 22:55:14 40° ENE 23:00:28 10° SE
Cosmos 2322 4.2 22:50:28 10° NW 22:55:33 35° WSW 23:00:37 10° SSW
Cosmos 1805 Rocket 3.8 22:54:37 26° SSW 22:56:52 51° W 23:01:11 10° N
NOSS 0 Rocket 4.1 22:52:12 10° NNW 22:58:21 77° ENE 23:04:28 10° SSE
ARIANE 5 R/B 4.4 22:55:57 10° S 22:58:36 15° SSE 23:04:04 10° ESE
Cosmos 1743 Rocket 4.4 22:57:33 27° WSW 22:58:40 30° W 23:02:35 10° NNW
Cosmos 1515 Rocket 3.8 22:55:01 10° NNW 22:59:11 46° W 23:02:27 16° SSW
IRIDIUM 104 4.4 22:55:24 16° SSW 22:59:23 54° W 23:04:28 10° NNW
Meteor 1-5 Rocket 4.0 22:55:43 10° S 23:01:14 82° W 23:06:35 10° N
Cosmos 1666 Rocket 4.3 22:57:01 10° S 23:01:16 54° E 23:05:34 10° NNE
Cosmos 44 Rocket 3.7 23:02:46 22° SW 23:05:32 45° WNW 23:10:11 10° N
Aurora 2 Rocket 2.8 23:05:01 10° WNW 23:07:58 41° NNE 23:11:06 10° E
Cosmos 1513 Rocket 4.4 23:05:54 10° N 23:11:58 85° W 23:18:05 10° S
Meteor 2-13 Rocket 4.4 23:06:12 10° SSW 23:12:14 65° W 23:18:18 10° N
CZ-4C R/B 3.6 23:15:00 10° SSE 23:19:12 82° ENE 23:23:32 10° N
Sich 1 3.9 23:17:03 14° SW 23:20:07 31° W 23:23:57 10° NNW
Cosmos 2219 Rocket 3.6 23:17:36 10° WNW 23:21:06 17° WSW 23:24:35 10° SW
Cosmos 1484 Rocket 4.3 23:18:58 10° NNW 23:21:46 19° WNW 23:23:41 14° WSW
COSMOS 2455 4.1 23:18:14 10° N 23:23:57 45° ENE 23:29:39 10° SE
SJ-12 4.0 23:22:35 10° NNE 23:26:42 83° ESE 23:30:49 10° S
CZ-2C R/B 2.9 23:22:08 10° NNE 23:27:03 90° WSW 23:31:47 10° SSW
Landsat 4 3.9 23:24:08 10° N 23:27:44 51° WNW 23:31:20 10° SSW
Cosmos 389 Rocket 2.7 23:25:04 10° S 23:28:30 71° E 23:31:59 10° N
Cosmos 2098 Rocket 4.2 23:27:58 13° WSW 23:29:23 15° W 23:31:23 10° NW
ATLAS CENTAUR R/B 2.4 23:25:52 10° S 23:30:03 50° ESE 23:34:32 10° NE
Timation 2 Rocket 4.1 23:24:15 10° SSW 23:30:09 58° WNW 23:36:19 10° N
YAOGAN 6 3.8 23:27:18 10° NNW 23:30:13 24° WNW 23:33:05 10° SW
ATLAS 3B R/B 3.7 23:24:22 10° S 23:30:16 41° ESE 23:36:18 10° NE
Cosmos 773 Rocket 4.0 23:25:30 10° SSW 23:30:45 82° WNW 23:36:00 10° N
PSLV R/B 4.1 23:27:46 10° N 23:31:39 37° WNW 23:35:29 10° SW
Cosmos 2034 Rocket 4.2 23:26:17 10° N 23:32:28 80° E 23:38:36 10° S
Meteor 1-11 Rocket 4.4 23:28:03 10° S 23:33:54 66° E 23:39:49 10° NNE
Cosmos 371 Rocket 4.2 23:32:25 10° N 23:37:06 55° ENE 23:41:48 10° SSE
Milstar 3 Cent rocket 3.3 23:34:08 10° SW 23:39:04 46° SE 23:47:21 10° ENE
GPS 2-15 Rocket1 4.2 23:35:08 10° SW 23:39:21 32° SSE 23:43:31 10° E
Cosmos 1707 Rocket 4.3 23:35:23 10° N 23:39:42 59° E 23:44:04 10° SSE
SWIFT 3.0 23:36:08 10° WNW 23:40:13 54° N 23:44:18 10° E
MINOTAUR 4 R/B 4.3 23:39:01 10° S 23:42:24 46° W 23:45:47 10° NNW
NOAA 11 4.2 23:38:52 10° N 23:44:14 69° WNW 23:49:37 10° SSW
Cosmos 1536 3.0 23:41:55 10° S 23:45:53 79° E 23:49:55 10° N
